FW7745 Weather Reports


time (UTC)temp
C
wind
direction
speed
KPH
gust
KPH
rain 1hr
cm
rain 24hr
cm
rain mn
cm
humidity
%
barometer
mb
20260505035045 20 192 4.8 9.7 0.00 0.00 0.00 52 1013.0
20260505034542 20 190 1.6 3.2 0.00 0.00 0.00 52 1012.7
20260505034039 20 216 3.2 3.2 0.00 0.00 0.00 52 1012.8
20260505033536 20 194 3.2 4.8 0.00 0.00 0.00 51 1012.7
20260505033034 20 168 3.2 3.2 0.00 0.00 0.00 51 1012.7
20260505032532 20 210 3.2 3.2 0.00 0.00 0.00 51 1012.9
20260505032028 20 216 1.6 3.2 0.00 0.00 0.00 51 1012.7
20260505031525 20 205 3.2 4.8 0.00 0.00 0.00 50 1012.6
20260505031021 20 210 4.8 8.0 0.00 0.00 0.00 50 1012.8
20260505030518 20 177 4.8 4.8 0.00 0.00 0.00 50 1012.9
20260505030015 20 158 8.0 11.3 0.00 0.00 0.00 49 1012.9
20260505025510 20 136 4.8 4.8 0.00 0.00 0.00 49 1012.7
20260505025010 21 174 6.4 8.0 0.00 0.00 0.00 49 1012.8
20260505024506 21 173 8.0 9.7 0.00 0.00 0.00 49 1012.8
20260505024003 21 159 3.2 3.2 0.00 0.00 0.00 48 1012.8
20260505023500 21 259 6.4 8.0 0.00 0.00 0.00 48 1012.9
20260505022958 21 179 4.8 4.8 0.00 0.00 0.00 48 1012.7
20260505022455 21 191 4.8 9.7 0.00 0.00 0.00 47 1012.9
20260505021952 21 207 4.8 8.0 0.00 0.00 0.00 47 1012.8
20260505021448 21 185 8.0 12.9 0.00 0.00 0.00 47 1012.4
20260505020944 21 206 8.0 9.7 0.00 0.00 0.00 47 1012.6
20260505020439 21 151 4.8 8.0 0.00 0.00 0.00 47 1012.7
20260505015937 21 210 6.4 8.0 0.00 0.00 0.00 46 1012.6
20260505015434 21 146 1.6 3.2 0.00 0.00 0.00 46 1012.8
20260505014931 21 195 8.0 11.3 0.00 0.00 0.00 46 1012.6
20260505014428 21 164 4.8 4.8 0.00 0.00 0.00 46 1012.5
20260505013925 22 183 4.8 8.0 0.00 0.00 0.00 45 1012.5
20260505013422 22 189 3.2 4.8 0.00 0.00 0.00 45 1012.4
20260505012920 22 133 6.4 9.7 0.00 0.00 0.00 45 1012.3
20260505012418 22 137 9.7 14.5 0.00 0.00 0.00 45 1012.2
20260505011914 22 151 6.4 9.7 0.00 0.00 0.00 45 1012.3
20260505011410 22 196 4.8 4.8 0.00 0.00 0.00 45 1012.2
20260505010907 22 184 6.4 11.3 0.00 0.00 0.00 45 1012.1
20260505010403 22 174 3.2 3.2 0.00 0.00 0.00 45 1012.2
20260505005859 22 206 8.0 9.7 0.00 0.00 0.00 45 1012.2
20260505005355 22 176 6.4 8.0 0.00 0.00 0.00 46 1012.1
20260505004853 22 212 1.6 1.6 0.00 0.00 0.00 46 1012.2
20260505004349 22 207 1.6 3.2 0.00 0.00 0.00 45 1011.8
20260505003847 22 218 1.6 1.6 0.00 0.00 0.00 45 1011.9
20260505003344 22 241 1.6 3.2 0.00 0.00 0.00 45 1011.9
20260505002840 22 173 4.8 4.8 0.00 0.00 0.00 45 1011.7
20260505002337 22 199 3.2 3.2 0.00 0.00 0.00 44 1012.0
20260505001835 23 180 4.8 8.0 0.00 0.00 0.00 44 1011.9
20260505001332 23 187 1.6 3.2 0.00 0.00 0.00 44 1011.8
20260505000829 23 195 4.8 8.0 0.00 0.00 0.00 44 1011.7
20260505000327 23 187 6.4 8.0 0.00 0.00 0.00 44 1011.8
20260504235823 23 193 8.0 11.3 0.00 0.00 0.00 43 1011.9
20260504235320 23 189 4.8 8.0 0.00 0.00 0.00 43 1011.8
20260504234817 23 216 11.3 14.5 0.00 0.00 0.00 43 1011.7
20260504234315 23 226 8.0 9.7 0.00 0.00 0.00 42 1011.8
20260504233811 23 103 8.0 12.9 0.00 0.00 0.00 42 1011.8
20260504233307 23 239 4.8 8.0 0.00 0.00 0.00 42 1011.7
20260504232804 23 177 9.7 12.9 0.00 0.00 0.00 41 1011.9
20260504232301 23 165 11.3 12.9 0.00 0.00 0.00 41 1011.6
20260504231758 23 134 8.0 11.3 0.00 0.00 0.00 40 1011.4
20260504231254 23 162 8.0 9.7 0.00 0.00 0.00 40 1011.6
20260504230750 23 187 9.7 11.3 0.00 0.00 0.00 40 1011.6
20260504230248 24 180 14.5 17.7 0.00 0.00 0.00 39 1011.7
20260504225747 24 207 11.3 16.1 0.00 0.00 0.00 39 1011.5
20260504225243 24 92 8.0 11.3 0.00 0.00 0.00 39 1011.4
20260504224740 24 186 8.0 9.7 0.00 0.00 0.00 39 1011.6
20260504224237 24 282 6.4 9.7 0.00 0.00 0.00 39 1011.6
20260504223733 24 158 11.3 14.5 0.00 0.00 0.00 38 1011.6
20260504223229 24 155 12.9 16.1 0.00 0.00 0.00 38 1011.8
20260504222726 24 144 6.4 8.0 0.00 0.00 0.00 38 1011.5
20260504222223 24 197 16.1 20.9 0.00 0.00 0.00 38 1011.6
20260504221721 24 193 11.3 14.5 0.00 0.00 0.00 37 1011.6
20260504221218 24 164 11.3 14.5 0.00 0.00 0.00 37 1011.7
20260504220714 25 223 11.3 14.5 0.00 0.00 0.00 37 1011.7
20260504220212 24 188 8.0 11.3 0.00 0.00 0.00 37 1011.9
20260504215708 24 192 9.7 17.7 0.00 0.00 0.00 36 1011.7
20260504215205 25 216 12.9 25.7 0.00 0.00 0.00 37 1011.6
20260504214701 25 188 20.9 29.0 0.00 0.00 0.00 37 1011.5
20260504214158 25 193 17.7 22.5 0.00 0.00 0.00 36 1011.7
20260504213654 25 238 9.7 17.7 0.00 0.00 0.00 36 1011.6
20260504213151 24 139 6.4 11.3 0.00 0.00 0.00 36 1011.7
20260504212647 24 215 14.5 17.7 0.00 0.00 0.00 36 1011.8
20260504212144 25 245 11.3 12.9 0.00 0.00 0.00 36 1011.6
20260504211642 25 268 1.6 3.2 0.00 0.00 0.00 35 1011.6
20260504211138 25 196 11.3 12.9 0.00 0.00 0.00 35 1011.6
20260504210636 25 160 8.0 12.9 0.00 0.00 0.00 34 1011.7
20260504210132 25 220 17.7 20.9 0.00 0.00 0.00 34 1011.5
20260504205630 25 193 9.7 14.5 0.00 0.00 0.00 34 1011.9
20260504205127 25 100 9.7 11.3 0.00 0.00 0.00 34 1011.8
20260504204625 25 205 11.3 16.1 0.00 0.00 0.00 34 1011.9
20260504204124 25 191 14.5 17.7 0.00 0.00 0.00 34 1011.8
20260504203622 25 141 12.9 17.7 0.00 0.00 0.00 34 1011.7
20260504203119 25 184 14.5 24.1 0.00 0.00 0.00 34 1012.0
20260504202614 25 219 11.3 16.1 0.00 0.00 0.00 34 1011.8
20260504202111 25 160 6.4 9.7 0.00 0.00 0.00 34 1011.7
20260504201608 25 223 4.8 4.8 0.00 0.00 0.00 34 1012.1
20260504201106 26 255 8.0 12.9 0.00 0.00 0.00 33 1012.1
20260504200603 26 199 6.4 11.3 0.00 0.00 0.00 32 1012.1
20260504200059 25 215 8.0 12.9 0.00 0.00 0.00 33 1012.3
20260504195555 25 193 14.5 20.9 0.00 0.00 0.00 34 1012.2
20260504195052 25 214 4.8 4.8 0.00 0.00 0.00 34 1012.2
20260504194548 25 305 8.0 9.7 0.00 0.00 0.00 34 1012.2
20260504194044 25 237 8.0 12.9 0.00 0.00 0.00 35 1012.3
20260504193541 24 211 9.7 12.9 0.00 0.00 0.00 35 1012.6
20260504193039 24 261 8.0 11.3 0.00 0.00 0.00 35 1012.5
20260504192537 24 205 6.4 9.7 0.00 0.00 0.00 35 1012.6
20260504192035 25 242 8.0 9.7 0.00 0.00 0.00 35 1012.8
20260504191533 24 190 9.7 12.9 0.00 0.00 0.00 35 1013.1
20260504191029 23 209 17.7 25.7 0.00 0.00 0.00 36 1013.2
20260504190525 24 184 4.8 9.7 0.00 0.00 0.00 34 1013.0
20260504190021 24 182 8.0 11.3 0.00 0.00 0.00 35 1013.3
20260504185518 23 210 11.3 14.5 0.00 0.00 0.00 35 1013.6
20260504185015 23 225 16.1 17.7 0.00 0.00 0.00 36 1013.4
20260504184510 23 231 9.7 14.5 0.00 0.00 0.00 35 1013.4
20260504184006 23 228 9.7 12.9 0.00 0.00 0.00 35 1013.7
20260504183503 23 181 4.8 9.7 0.00 0.00 0.00 36 1013.7
20260504183001 23 43 3.2 4.8 0.00 0.00 0.00 36 1013.7
20260504182458 23 257 4.8 8.0 0.00 0.00 0.00 37 1014.0
20260504181955 23 239 8.0 9.7 0.00 0.00 0.00 37 1013.9
20260504181452 23 155 8.0 11.3 0.00 0.00 0.00 37 1013.7
20260504180950 23 185 14.5 20.9 0.00 0.00 0.00 37 1013.9
20260504180449 22 209 8.0 9.7 0.00 0.00 0.00 37 1013.9
20260504175947 23 263 8.0 9.7 0.00 0.00 0.00 37 1014.2
20260504175444 22 120 3.2 3.2 0.00 0.00 0.00 38 1014.2
20260504174941 22 231 9.7 11.3 0.00 0.00 0.00 38 1014.4
20260504174439 22 246 12.9 16.1 0.00 0.00 0.00 38 1014.3
20260504173936 22 246 12.9 16.1 0.00 0.00 0.00 37 1014.4
20260504173432 22 169 4.8 9.7 0.00 0.00 0.00 38 1014.5
20260504172930 22 183 6.4 8.0 0.00 0.00 0.00 38 1014.5
20260504172426 22 205 6.4 8.0 0.00 0.00 0.00 38 1014.6
20260504171922 22 264 1.6 3.2 0.00 0.00 0.00 38 1014.8
20260504171420 22 260 6.4 8.0 0.00 0.00 0.00 39 1014.8
20260504170916 21 176 6.4 9.7 0.00 0.00 0.00 38 1014.9
20260504170413 21 198 4.8 8.0 0.00 0.00 0.00 39 1015.0
20260504160332 21 185 8.0 11.3 0.00 0.00 0.00 38 1015.4
20260504150756 19 248 6.4 8.0 0.00 0.00 0.00 44 1015.9
20260504150253 20 279 1.6 3.2 0.00 0.00 0.00 43 1016.1
20260504141223 17 271 4.8 8.0 0.00 0.00 0.00 49 1016.4
20260504140720 17 217 1.6 1.6 0.00 0.00 0.00 50 1016.4
20260504140215 16 266 0.0 1.6 0.00 0.00 0.00 51 1016.5
20260504130643 14 232 3.2 3.2 0.00 0.00 0.00 57 1016.9
20260504130140 13 182 11.3 11.3 0.00 0.00 0.00 58 1017.0
20260504120104 12 158 6.4 9.7 0.00 0.00 0.00 60 1017.3
20260504110531 11 204 4.8 8.0 0.00 0.00 0.00 61 1017.4
20260504100453 11 175 4.8 8.0 0.00 0.00 0.00 60 1017.1
20260504081847 12 215 1.6 3.2 0.00 0.00 0.00 56 1017.7
20260504081343 12 219 4.8 4.8 0.00 0.00 0.00 56 1017.7
20260504080838 12 243 0.0 1.6 0.00 0.00 0.00 56 1017.5
20260504080337 12 222 0.0 1.6 0.00 0.00 0.00 56 1017.6
20260504070304 12 198 0.0 1.6 0.00 0.00 0.00 57 1017.4
20260504060224 12 167 3.2 3.2 0.00 0.00 0.00 56 1018.2
20260504050652 12 205 1.6 3.2 0.00 0.00 0.00 56 1018.1
20260504050149 12 192 1.6 3.2 0.00 0.00 0.00 56 1018.0
20260504045646 12 206 1.6 3.2 0.00 0.00 0.00 55 1017.7
20260504045146 12 192 1.6 3.2 0.00 0.00 0.00 55 1017.8
20260504044644 12 185 1.6 3.2 0.00 0.00 0.00 55 1017.7
20260504044141 12 198 3.2 3.2 0.00 0.00 0.00 54 1017.8
20260504043638 12 221 3.2 4.8 0.00 0.00 0.00 54 1018.0
20260504043135 12 213 3.2 3.2 0.00 0.00 0.00 54 1017.8
20260504042632 12 219 4.8 4.8 0.00 0.00 0.00 54 1017.9
20260504042129 11 200 4.8 8.0 0.00 0.00 0.00 53 1017.7
20260504041625 11 195 1.6 1.6 0.00 0.00 0.00 53 1017.7
20260504041121 12 170 1.6 4.8 0.00 0.00 0.00 53 1017.8
20260504040618 12 167 4.8 4.8 0.00 0.00 0.00 52 1018.0
20260504040115 12 190 1.6 3.2 0.00 0.00 0.00 52 1018.0
20260504035612 12 225 3.2 3.2 0.00 0.00 0.00 52 1017.9